Find Kosmos-651

NORAD ID: 7291 Int'l Des: 1974-029 Owner: VMF Country: SU operational
LEOCIRCULAR

实时位置

正在加载3D地球...

关于 Kosmos-651

正在加载描述...

即将过境

Passes for default location (London). Set your location on the main map for personalized predictions.

高度历史

Loading altitude history...

两行轨道根数

1 7291U 74029A 26104.78810678 -.00000054 00000-0 28681-4 0 9998
2 7291 64.9689 120.6624 0021873 73.4540 286.8925 13.93091013641885
Epoch: Apr 14, 2026 • Age: 13 hours

当前状态

高度 955.2 km
速度 7.37 km/s
星下点 -63.15°S, 84.34°E
类型 other

Most Searched